• In Kazakhstan
  • List of Countries
  • For 7 days
  • Water Temperature
  • Weather Map
  • News
  • Weather Widgets
  • user-avatar
    Login

    Hourly Weather Ischgl

    Today, 11 November, Monday

    Time Temperature Precipitation Wind Pressure Humidity
    00:00 -15°C° 0 mm 3 mps 565 mmHg 62%
    01:00 -15°C° 0 mm 3 mps 565 mmHg 61%
    02:00 -15°C° 0 mm 3 mps 565 mmHg 61%
    03:00 -15°C° 0 mm 3 mps 565 mmHg 60%
    04:00 -15°C° 0 mm 3 mps 565 mmHg 60%
    05:00 -15°C° 0 mm 3 mps 565 mmHg 62%
    06:00 -15°C° 0 mm 3 mps 565 mmHg 64%
    07:00 -14°C° 0 mm 3 mps 565 mmHg 66%
    08:00 -12°C° 0 mm 3 mps 566 mmHg 70%
    09:00 -9°C° 0 mm 3 mps 567 mmHg 75%
    10:00 -7°C° 0 mm 3 mps 567 mmHg 79%
    11:00 -7°C° 0 mm 3 mps 567 mmHg 82%
    12:00 -6°C° 0 mm 3 mps 567 mmHg 85%
    13:00 -5°C° 0 mm 4 mps 567 mmHg 87%
    14:00 -5°C° 0 mm 3 mps 567 mmHg 88%
    15:00 -6°C° 0 mm 3 mps 566 mmHg 90%
    16:00 -6°C° 0 mm 2 mps 565 mmHg 91%
    17:00 -6°C° 0.1 mm 2 mps 565 mmHg 91%
    18:00 -7°C° 0.1 mm 2 mps 565 mmHg 92%
    19:00 -8°C° 0.1 mm 2 mps 564 mmHg 92%
    20:00 -7°C° 0.2 mm 2 mps 565 mmHg 93%
    21:00 -7°C° 0.2 mm 2 mps 565 mmHg 94%
    22:00 -7°C° 0.2 mm 2 mps 565 mmHg 95%
    23:00 -7°C° 0.4 mm 2 mps 565 mmHg 95%

    Tomorrow, 12 November, Tuesday

    Time Temperature Precipitation Wind Pressure Humidity
    00:00 -6°C° 0.4 mm 1 mps 565 mmHg 96%
    01:00 -6°C° 0.4 mm 1 mps 565 mmHg 96%
    02:00 -6°C° 1 mm 1 mps 565 mmHg 97%
    03:00 -6°C° 1 mm 1 mps 565 mmHg 97%
    04:00 -6°C° 1 mm 1 mps 564 mmHg 97%
    05:00 -7°C° 0.6 mm 1 mps 564 mmHg 97%
    06:00 -7°C° 0.6 mm 1 mps 564 mmHg 97%
    07:00 -7°C° 0.6 mm 1 mps 564 mmHg 97%
    08:00 -7°C° 0.2 mm 1 mps 564 mmHg 96%
    09:00 -7°C° 0.2 mm 1 mps 564 mmHg 95%
    10:00 -6°C° 0.2 mm 1 mps 563 mmHg 94%
    11:00 -6°C° 0.1 mm 1 mps 563 mmHg 93%
    12:00 -7°C° 0.1 mm 2 mps 563 mmHg 93%
    13:00 -6°C° 0.1 mm 2 mps 563 mmHg 93%
    14:00 -6°C° 0.3 mm 2 mps 563 mmHg 94%
    15:00 -7°C° 0.3 mm 2 mps 562 mmHg 95%
    16:00 -7°C° 0.3 mm 2 mps 562 mmHg 96%
    17:00 -8°C° 0.5 mm 2 mps 561 mmHg 96%
    18:00 -9°C° 0.5 mm 3 mps 561 mmHg 96%
    19:00 -10°C° 0.5 mm 3 mps 560 mmHg 96%
    20:00 -10°C° 2.4 mm 3 mps 560 mmHg 96%
    21:00 -10°C° 2.4 mm 2 mps 560 mmHg 96%
    22:00 -10°C° 2.4 mm 2 mps 560 mmHg 96%
    23:00 -10°C° 2.3 mm 2 mps 560 mmHg 96%

    Day after tomorrow, 13 November, Wednesday

    Time Temperature Precipitation Wind Pressure Humidity
    00:00 -10°C° 2.3 mm 2 mps 560 mmHg 96%
    01:00 -10°C° 2.3 mm 1 mps 560 mmHg 96%
    02:00 -10°C° 0.9 mm 1 mps 559 mmHg 96%
    03:00 -10°C° 0.9 mm 1 mps 559 mmHg 96%
    04:00 -10°C° 0.9 mm 1 mps 559 mmHg 96%
    05:00 -10°C° 0.7 mm 1 mps 559 mmHg 96%
    06:00 -10°C° 0.7 mm 1 mps 559 mmHg 96%
    07:00 -10°C° 0.7 mm 1 mps 558 mmHg 96%
    08:00 -10°C° 0.8 mm 1 mps 559 mmHg 96%
    09:00 -9°C° 0.8 mm 1 mps 559 mmHg 95%
    10:00 -10°C° 0.8 mm 2 mps 559 mmHg 95%
    11:00 -9°C° 0.4 mm 2 mps 560 mmHg 94%
    12:00 -9°C° 0.4 mm 2 mps 560 mmHg 92%
    13:00 -8°C° 0.4 mm 2 mps 560 mmHg 91%
    14:00 -9°C° 0.1 mm 2 mps 560 mmHg 93%
    15:00 -9°C° 0.1 mm 2 mps 560 mmHg 94%
    16:00 -9°C° 0.1 mm 1 mps 559 mmHg 96%
    17:00 -11°C° 0 mm 1 mps 559 mmHg 95%
    18:00 -13°C° 0 mm 1 mps 558 mmHg 95%
    19:00 -15°C° 0 mm 1 mps 557 mmHg 94%
    20:00 -14°C° 0 mm 1 mps 557 mmHg 87%
    21:00 -14°C° 0 mm 1 mps 558 mmHg 80%
    22:00 -16°C° 0 mm 2 mps 558 mmHg 72%
    23:00 -15°C° 0 mm 2 mps 558 mmHg 69%

    14 November, Thursday

    Time Temperature Precipitation Wind Pressure Humidity
    00:00 -15°C° 0 mm 2 mps 559 mmHg 66%
    01:00 -14°C° 0 mm 2 mps 559 mmHg 63%
    02:00 -14°C° 0 mm 2 mps 559 mmHg 67%
    03:00 -14°C° 0 mm 3 mps 559 mmHg 71%
    04:00 -14°C° 0 mm 3 mps 559 mmHg 76%
    05:00 -14°C° 0 mm 3 mps 559 mmHg 80%
    06:00 -14°C° 0 mm 3 mps 559 mmHg 83%
    07:00 -14°C° 0 mm 3 mps 559 mmHg 87%
    08:00 -13°C° 0 mm 3 mps 560 mmHg 88%
    09:00 -10°C° 0 mm 3 mps 561 mmHg 89%
    10:00 -9°C° 0 mm 3 mps 561 mmHg 89%
    11:00 -8°C° 0 mm 3 mps 562 mmHg 88%
    12:00 -7°C° 0 mm 3 mps 562 mmHg 87%
    13:00 -6°C° 0 mm 3 mps 562 mmHg 86%
    14:00 -7°C° 0 mm 3 mps 562 mmHg 87%
    15:00 -8°C° 0 mm 3 mps 561 mmHg 88%
    16:00 -9°C° 0 mm 3 mps 561 mmHg 89%
    17:00 -10°C° 0 mm 3 mps 560 mmHg 90%
    18:00 -12°C° 0 mm 4 mps 559 mmHg 91%
    19:00 -12°C° 0 mm 4 mps 559 mmHg 92%
    20:00 -12°C° 0 mm 4 mps 559 mmHg 92%
    21:00 -12°C° 0 mm 4 mps 559 mmHg 92%
    22:00 -13°C° 0 mm 5 mps 559 mmHg 92%
    23:00 -13°C° 0.1 mm 5 mps 558 mmHg 91%

    15 November, Friday

    Time Temperature Precipitation Wind Pressure Humidity
    00:00 -13°C° 0.1 mm 5 mps 558 mmHg 91%
    01:00 -11°C° 0.1 mm 4 mps 558 mmHg 91%
    02:00 -11°C° 0.6 mm 4 mps 558 mmHg 91%
    03:00 -10°C° 0.6 mm 4 mps 559 mmHg 91%
    04:00 -10°C° 0.6 mm 4 mps 559 mmHg 92%
    05:00 -8°C° 1.3 mm 3 mps 560 mmHg 92%
    06:00 -8°C° 1.3 mm 3 mps 560 mmHg 93%
    07:00 -8°C° 1.3 mm 3 mps 560 mmHg 93%
    08:00 -7°C° 0.8 mm 3 mps 561 mmHg 94%
    09:00 -6°C° 0.8 mm 2 mps 561 mmHg 94%
    10:00 -5°C° 0.8 mm 2 mps 562 mmHg 95%
    11:00 -5°C° 2 mm 2 mps 562 mmHg 96%
    12:00 -5°C° 2 mm 2 mps 562 mmHg 96%
    13:00 -4°C° 2 mm 2 mps 562 mmHg 97%
    14:00 -5°C° 1.6 mm 2 mps 562 mmHg 97%
    15:00 -5°C° 1.6 mm 2 mps 562 mmHg 97%
    16:00 -3°C° 1.6 mm 1 mps 562 mmHg 97%
    17:00 -3°C° 1.7 mm 1 mps 562 mmHg 97%
    18:00 -3°C° 1.7 mm 1 mps 562 mmHg 97%
    19:00 -4°C° 1.7 mm 1 mps 562 mmHg 97%
    20:00 -4°C° 1.4 mm 1 mps 562 mmHg 97%
    21:00 -4°C° 1.4 mm 1 mps 563 mmHg 96%
    22:00 -6°C° 1.4 mm 2 mps 563 mmHg 96%
    23:00 -7°C° 0.9 mm 2 mps 563 mmHg 95%

    16 November, Saturday

    Time Temperature Precipitation Wind Pressure Humidity
    00:00 -7°C° 0.9 mm 2 mps 563 mmHg 94%
    01:00 -8°C° 0.9 mm 2 mps 563 mmHg 94%
    02:00 -9°C° 0.2 mm 2 mps 562 mmHg 92%
    03:00 -12°C° 0.2 mm 3 mps 562 mmHg 91%
    04:00 -13°C° 0.2 mm 3 mps 562 mmHg 90%
    05:00 -13°C° 0.2 mm 3 mps 562 mmHg 91%
    06:00 -12°C° 0.2 mm 3 mps 563 mmHg 91%
    07:00 -10°C° 0.2 mm 3 mps 564 mmHg 92%
    08:00 -10°C° 0 mm 3 mps 565 mmHg 91%
    09:00 -9°C° 0 mm 3 mps 566 mmHg 90%
    10:00 -8°C° 0 mm 3 mps 567 mmHg 90%
    11:00 -7°C° 0 mm 3 mps 567 mmHg 89%
    12:00 -6°C° 0 mm 2 mps 568 mmHg 88%
    13:00 -5°C° 0 mm 2 mps 568 mmHg 88%
    14:00 -6°C° 0 mm 2 mps 567 mmHg 88%
    15:00 -6°C° 0 mm 2 mps 567 mmHg 89%
    16:00 -7°C° 0 mm 2 mps 567 mmHg 90%
    17:00 -8°C° 0.1 mm 2 mps 566 mmHg 90%
    18:00 -8°C° 0.1 mm 2 mps 566 mmHg 90%
    19:00 -9°C° 0.1 mm 2 mps 566 mmHg 90%
    20:00 -9°C° 0.5 mm 2 mps 565 mmHg 91%
    21:00 -8°C° 0.5 mm 2 mps 565 mmHg 92%
    22:00 -8°C° 0.5 mm 2 mps 564 mmHg 93%
    23:00 -8°C° 1.6 mm 2 mps 564 mmHg 94%
    Show more